Regional Weather Roundup
Issued by NWS State College, PA

Home | Current Version | Previous Version | Text Only | Print | Product List | Glossary Off
Versions: 1 2 3 4 5 6 7 8 9 10 11 12 13 14 15 16 17 18 19 20 21 22 23 24 25 26 27 28 29 30 31 32 33 34 35 36 37 38 39 40 41 42 43 44 45 46 47 48 49 50

000
ASUS41 KCTP 220303
RWRCTP

REGIONAL WEATHER ROUNDUP
NATIONAL WEATHER SERVICE STATE COLLEGE PA
1000 PM EST SAT JAN 21 2017

Note: "fair" indicates few or no clouds below 12,000 feet with no
significant weather and/or obstructions to visibility.

* = STATION THAT DOES NOT REPORT PRECIPITATION /E.G. RAIN...SNOW...ETC/
    THUNDER OR FOG.

PAZ002>004-007>009-013>016-020>023-029>032-220400-
WESTERN PENNSYLVANIA

CITY           SKY/WX    TMP DP  RH WIND       PRES   REMARKS
ERIE           CLOUDY    52  43  71 CALM      29.66F
MEADVILLE      CLOUDY    55  48  77 CALM      29.69F
FRANKLIN*        N/A     52  48  87 S5        29.71F
NEW CASTLE     CLOUDY    56  51  84 VRB3      29.70S
BEAVER COUNTY  NOT AVBL
BUTLER*        PTCLDY    52  48  87 SE5       29.74S
PITTSBURGH INT CLOUDY    55  52  89 CALM      29.70S
PITTSBURGH     MOCLDY    56  47  71 SE6       29.70F
INDIANA*       MOCLDY    50  48  93 E3        29.74F
LATROBE        CLOUDY    50  48  93 CALM      29.73S
WASHINGTON CO* CLOUDY    48  48 100 CALM      29.72R
$$

PAZ004>006-010>012-017>019-024>028-033>037-041-042-045-046-049>053-220400-
CENTRAL PENNSYLVANIA

CITY           SKY/WX    TMP DP  RH WIND       PRES   REMARKS
BRADFORD       CLOUDY    47  47 100 SE5       29.72F FOG
DUBOIS         CLOUDY    52  46  80 CALM      29.71F
CLEARFIELD     CLOUDY    45  44  97 NE7       29.74F
JOHNSTOWN      MOCLDY    53  46  77 S6        29.73S
ALTOONA        FOG       44  43  96 CALM      29.77F VSB 1/2
STATE COLLEGE  NOT AVBL
WILLIAMSPORT   CLOUDY    43  41  93 CALM      29.79S
SELINSGROVE    FOG       42  42 100 CALM      29.81S VSB 1/2
FT INDIANTOWN  FOG       42  42 100 CALM      29.81R VSB 1/2
CAPITAL CITY   FOG       45  43  93 CALM      29.81S VSB 1/2
HARRISBURG     DRZL/FOG  44  44 100 CALM      29.80F VSB 1/2
YORK           CLOUDY    45  45 100 CALM      29.79F
$$

PAZ038>040-043-044-047-048-054-055-060>062-067>071-220400-
EASTERN PENNSYLVANIA

CITY           SKY/WX    TMP DP  RH WIND       PRES   REMARKS
SCRANTON       FOG       42  42 100 SE3       29.78S VSB 1/4
MOUNT POCONO   PTCLDY    39  37  92 N3        29.76S
ALLENTOWN      FOG       43  41  93 CALM      29.80S VSB 1/4
QUAKERTOWN*    CLOUDY    45  45 100 CALM      29.81S VSB 1/2
READING        FOG       44  44 100 N3        29.81R VSB 1/2
LANCASTER      FOG       45  45 100 S5        29.81S VSB 1
COATESVILLE    FOG       43  43 100 NW3       29.82S VSB<1/4
POTTSTOWN      FOG       44  44 100 CALM      29.82S VSB 3/4
BLUE BELL      CLOUDY    43  43 100 CALM      29.80S VSB 1/2
DOYLESTOWN     FOG       45  45 100 CALM      29.80S VSB 1
WILLOW GROVE   NOT AVBL
NORTH PHILA    FOG       47  46  97 CALM      29.83S VSB 1/4
PHILADELPHIA   FOG       46  45  96 CALM      29.82S VSB 3/4
$$




USA.gov is the U.S. government's official web portal to all federal, state and local government web resources and services.